TimeCDT,TemperatureF,Dew PointF,Humidity,Sea Level PressureIn,VisibilityMPH,Wind Direction,Wind SpeedMPH,Gust SpeedMPH,PrecipitationIn,Events,Conditions,WindDirDegrees,DateUTC
12:27 AM,60.8,60.8,100,29.61,10.0,NE,5.8,-,N/A,,Overcast,40,2012-10-25 05:27:00
12:55 AM,61.2,60.8,99,29.59,10.0,NNE,6.9,-,0.00,,Overcast,30,2012-10-25 05:55:00
12:59 AM,60.8,60.8,100,29.59,10.0,NNE,6.9,-,N/A,Rain,Light Rain,30,2012-10-25 05:59:00
1:16 AM,60.8,60.8,100,29.58,10.0,North,5.8,-,N/A,,Overcast,360,2012-10-25 06:16:00
1:55 AM,67.3,66.0,96,29.59,10.0,SSW,13.8,-,0.00,,Overcast,200,2012-10-25 06:55:00
2:01 AM,68.0,62.6,83,29.61,9.0,West,12.7,46.0,N/A,Rain,Light Rain,260,2012-10-25 07:01:00
2:07 AM,66.2,62.6,88,29.62,7.0,SW,12.7,46.0,N/A,Rain,Light Rain,220,2012-10-25 07:07:00
2:17 AM,60.8,59.0,94,29.63,7.0,WNW,18.4,32.2,N/A,Rain,Light Rain,300,2012-10-25 07:17:00
2:29 AM,57.2,57.2,100,29.64,10.0,NNW,12.7,21.9,N/A,,Overcast,330,2012-10-25 07:29:00
2:37 AM,55.4,55.4,100,29.65,10.0,NNW,9.2,18.4,N/A,,Overcast,330,2012-10-25 07:37:00
2:51 AM,53.6,53.6,100,29.65,10.0,NNW,13.8,19.6,N/A,,Light Drizzle,340,2012-10-25 07:51:00
2:55 AM,53.6,53.2,99,29.65,10.0,NNW,12.7,20.7,0.04,,Light Drizzle,340,2012-10-25 07:55:00
3:14 AM,51.8,51.8,100,29.67,9.0,NNW,12.7,20.7,N/A,Rain,Light Rain,340,2012-10-25 08:14:00
3:24 AM,51.8,50.0,94,29.68,7.0,NNW,11.5,-,N/A,Rain,Light Rain,340,2012-10-25 08:24:00
3:32 AM,50.0,50.0,100,29.68,4.0,North,15.0,19.6,N/A,Rain,Heavy Rain,350,2012-10-25 08:32:00
3:33 AM,50.0,50.0,100,29.69,4.0,NNW,13.8,19.6,N/A,Rain,Heavy Rain,340,2012-10-25 08:33:00
3:36 AM,50.0,50.0,100,29.68,4.0,North,13.8,19.6,N/A,Rain,Rain,350,2012-10-25 08:36:00
3:37 AM,50.0,50.0,100,29.68,4.0,North,11.5,19.6,N/A,Rain,Rain,360,2012-10-25 08:37:00
3:55 AM,49.1,49.1,100,29.70,5.0,North,13.8,-,0.10,Rain,Light Rain,350,2012-10-25 08:55:00
4:04 AM,48.2,48.2,100,29.72,6.0,NNW,12.7,21.9,N/A,Rain,Light Rain,330,2012-10-25 09:04:00
4:16 AM,46.4,46.4,100,29.72,8.0,NNW,17.3,24.2,N/A,Rain,Light Rain,340,2012-10-25 09:16:00
4:26 AM,46.4,46.4,100,29.73,9.0,NNW,10.4,21.9,N/A,Rain,Light Rain,330,2012-10-25 09:26:00
4:53 AM,44.6,44.6,100,29.75,10.0,North,13.8,25.3,N/A,,Overcast,350,2012-10-25 09:53:00
4:55 AM,45.3,45.0,99,29.75,10.0,North,9.2,25.3,0.03,,Overcast,350,2012-10-25 09:55:00
5:01 AM,44.6,44.6,100,29.75,10.0,North,15.0,21.9,N/A,,Overcast,350,2012-10-25 10:01:00
5:45 AM,42.8,42.8,100,29.80,10.0,NNW,15.0,23.0,N/A,,Overcast,340,2012-10-25 10:45:00
5:55 AM,43.2,42.8,99,29.81,10.0,North,16.1,25.3,0.01,,Light Drizzle,350,2012-10-25 10:55:00
6:03 AM,42.8,42.8,100,29.82,9.0,NNW,9.2,23.0,N/A,,Light Drizzle,340,2012-10-25 11:03:00
6:26 AM,42.8,42.8,100,29.84,7.0,North,15.0,21.9,N/A,Rain,Light Rain,350,2012-10-25 11:26:00
6:37 AM,42.8,41.0,93,29.85,6.0,NNW,10.4,19.6,N/A,Rain,Light Rain,340,2012-10-25 11:37:00
6:41 AM,42.8,41.0,93,29.85,6.0,NNW,9.2,19.6,N/A,Rain,Light Rain,340,2012-10-25 11:41:00
6:44 AM,42.8,41.0,93,29.85,7.0,NNW,12.7,20.7,N/A,Rain,Light Rain,330,2012-10-25 11:44:00
6:52 AM,42.8,41.0,93,29.85,10.0,North,15.0,20.7,N/A,,Overcast,350,2012-10-25 11:52:00
6:55 AM,41.9,41.7,99,29.86,10.0,NNW,10.4,20.7,0.02,,Overcast,340,2012-10-25 11:55:00
7:05 AM,42.8,41.0,93,29.87,10.0,NNW,10.4,23.0,N/A,,Overcast,330,2012-10-25 12:05:00
7:11 AM,42.8,41.0,93,29.88,10.0,NNW,11.5,23.0,N/A,,Overcast,340,2012-10-25 12:11:00
7:12 AM,42.8,41.0,93,29.88,10.0,NNW,11.5,23.0,N/A,,Overcast,340,2012-10-25 12:12:00
7:17 AM,42.8,41.0,93,29.88,10.0,NNW,9.2,19.6,N/A,,Light Drizzle,340,2012-10-25 12:17:00
7:46 AM,42.8,39.2,87,29.90,10.0,NNW,10.4,17.3,N/A,Rain,Light Rain,340,2012-10-25 12:46:00
7:54 AM,42.8,39.2,87,29.92,10.0,NW,9.2,-,N/A,,Overcast,320,2012-10-25 12:54:00
7:55 AM,42.1,39.7,91,29.92,10.0,NNW,9.2,-,0.00,,Overcast,330,2012-10-25 12:55:00
8:00 AM,42.8,39.2,87,29.92,10.0,NW,9.2,-,N/A,,Overcast,320,2012-10-25 13:00:00
8:17 AM,42.8,39.2,87,29.94,10.0,NNW,10.4,26.5,N/A,,Overcast,340,2012-10-25 13:17:00
8:55 AM,41.7,38.3,88,29.97,10.0,NNW,16.1,29.9,N/A,,Overcast,340,2012-10-25 13:55:00
9:19 AM,41.0,39.2,93,29.99,10.0,NNW,16.1,26.5,N/A,,Overcast,340,2012-10-25 14:19:00
9:25 AM,41.0,39.2,93,29.99,10.0,NNW,16.1,28.8,N/A,,Overcast,330,2012-10-25 14:25:00
9:26 AM,41.0,39.2,93,29.99,10.0,NNW,19.6,28.8,N/A,,Overcast,330,2012-10-25 14:26:00
9:55 AM,40.6,36.7,86,30.03,10.0,North,18.4,27.6,N/A,,Overcast,350,2012-10-25 14:55:00
10:04 AM,41.0,37.4,87,30.04,10.0,NNW,15.0,25.3,N/A,,Overcast,330,2012-10-25 15:04:00
10:55 AM,41.2,36.1,82,30.07,10.0,NNW,16.1,23.0,N/A,,Overcast,330,2012-10-25 15:55:00
11:55 AM,42.6,36.0,77,30.10,10.0,North,16.1,26.5,N/A,,Overcast,350,2012-10-25 16:55:00
12:12 PM,42.8,35.6,76,30.11,10.0,NNW,19.6,27.6,N/A,,Overcast,340,2012-10-25 17:12:00
12:55 PM,44.4,35.4,71,30.11,10.0,North,20.7,29.9,0.01,,Overcast,350,2012-10-25 17:55:00
1:27 PM,48.2,35.6,62,30.10,10.0,North,18.4,27.6,N/A,,Scattered Clouds,350,2012-10-25 18:27:00
1:55 PM,48.2,34.3,59,30.11,10.0,North,17.3,32.2,N/A,,Partly Cloudy,360,2012-10-25 18:55:00
2:55 PM,49.8,32.7,52,30.13,10.0,North,21.9,27.6,N/A,,Scattered Clouds,360,2012-10-25 19:55:00
3:55 PM,50.0,30.4,47,30.16,10.0,North,17.3,29.9,N/A,,Partly Cloudy,10,2012-10-25 20:55:00
4:55 PM,49.6,30.9,49,30.19,10.0,North,12.7,-,N/A,,Partly Cloudy,10,2012-10-25 21:55:00
5:55 PM,46.9,31.6,55,30.22,10.0,NNW,12.7,18.4,N/A,,Partly Cloudy,340,2012-10-25 22:55:00
6:55 PM,43.2,31.5,63,30.27,10.0,North,8.1,-,N/A,,Clear,360,2012-10-25 23:55:00
7:55 PM,40.3,30.4,68,30.31,10.0,North,9.2,-,N/A,,Clear,360,2012-10-26 00:55:00
8:51 PM,39.2,30.2,70,30.32,10.0,NW,4.6,-,N/A,,Mostly Cloudy,320,2012-10-26 01:51:00
8:55 PM,38.7,29.7,70,30.32,10.0,NNW,5.8,-,N/A,,Mostly Cloudy,330,2012-10-26 01:55:00
9:55 PM,37.6,28.2,69,30.35,10.0,North,11.5,21.9,N/A,,Overcast,360,2012-10-26 02:55:00
10:55 PM,37.6,28.2,69,30.36,10.0,North,13.8,19.6,N/A,,Overcast,360,2012-10-26 03:55:00
11:55 PM,37.6,28.2,69,30.38,10.0,North,9.2,-,N/A,,Overcast,10,2012-10-26 04:55:00